Regional Weather Roundup
Issued by NWS

Home | Current Version | Previous Version | Graphics & Text | Print | Product List | Glossary On
Versions: 1 2 3 4 5 6 7 8 9 10 11 12 13 14 15 16 17 18 19 20 21 22 23 24 25 26 27 28 29 30 31 32 33 34 35 36 37 38 39 40 41 42 43 44 45 46 47 48 49 50
000
ASUS43 KMKX 242159
RWRWI

WISCONSIN REGIONAL WEATHER ROUNDUP
NATIONAL WEATHER SERVICE MILWAUKEE/SULLIVAN WI
500 PM CDT WED MAY 24 2017

NOTE: "FAIR" INDICATES FEW OR NO CLOUDS BELOW 12,000 FEET WITH NO
SIGNIFICANT WEATHER AND/OR OBSTRUCTIONS TO VISIBILITY.

WIZ001-002-006>008-014>016-023>028-242300-
NORTHWEST WISCONSIN

CITY           SKY/WX    TMP DP  RH WIND       PRES   REMARKS
SUPERIOR ARPT  NOT AVBL
ASHLAND        CLOUDY    54  44  69 N9        29.77S
HAYWARD        CLOUDY    59  44  57 E9        29.73S
SIREN          CLOUDY    60  41  49 CALM      29.72F
CUMBERLAND     CLOUDY    55  43  62 NE5       29.71S
RICE LAKE      CLOUDY    59  44  57 NW3       29.72S
CHETEK         CLOUDY    60  46  60 NE3       29.70S
LADYSMITH      CLOUDY    59  47  64 E7        29.73R
EAU CLAIRE     NOT AVBL
MENOMONIE      CLOUDY    61  46  57 N8        29.69F
NEW RICHMOND   CLOUDY    59  43  56 NE6       29.72S
OSCEOLA        CLOUDY    60  44  55 NE7       29.74F
$$

WIZ003>005-009-010-017-018-242300-
NORTH CENTRAL WISCONSIN

CITY           SKY/WX    TMP DP  RH WIND       PRES   REMARKS
MANITOWISH WTR CLOUDY    53  49  87 E7        29.73F
ARBOR VITAE    CLOUDY    54  46  76 NE7       29.73S
WOODRUFF       CLOUDY    54  46  76 NE7       29.73S
RHINELANDER    CLOUDY    56  48  74 NE6       29.72F
EAGLE RIVER    CLOUDY    52  46  80 NE7       29.73F
LAND O LAKES   CLOUDY    53  47  78 NE7       29.76S
PHILLIPS       CLOUDY    54  46  76 NE8       29.71F
TOMAHAWK       CLOUDY    54  46  75 NE7       29.72S
MEDFORD        CLOUDY    53  47  79 NE9       29.70S
MERRILL        CLOUDY    55  48  77 NE8       29.71S
$$

WIZ029-030-035-036-043>047-242300-
CENTRAL WISCONSIN

CITY           SKY/WX    TMP DP  RH WIND       PRES   REMARKS
WAUSAU         CLOUDY    55  48  77 NE6       29.68S
MOSINEE        CLOUDY    54  52  94 NE8       29.70S
MARSHFIELD     CLOUDY    54  49  83 E9        29.68S
STEVENS POINT  CLOUDY    50  50 100 NE7       29.70R FOG
WAUPACA        CLOUDY    55  51  85 N7        29.68F
WAUTOMA        CLOUDY    55  51  86 N10       29.68S
WISC RAPIDS    CLOUDY    55  49  80 NE9       29.70R
CAMP DOUGLAS   NOT AVBL
$$

WIZ011>013-019>022-031-037>040-048>050-242300-
NORTHEAST WISCONSIN

CITY           SKY/WX    TMP DP  RH WIND       PRES   REMARKS
ANTIGO         CLOUDY    54  49  84 E12       29.70F
SHAWANO        CLOUDY    55  50  85 NE9       29.69F
OCONTO         CLOUDY    53  50  89 NE10      29.68S
STURGEON BAY   CLOUDY    52  50  93 N9        29.68S
GREEN BAY      CLOUDY    54  52  93 N13       29.68R
MANITOWOC      NOT AVBL
APPLETON       CLOUDY    54  52  94 N16       29.66S
CLINTONVILLE   CLOUDY    54  50  87 NE9       29.68F
OSHKOSH        CLOUDY    56  50  80 NE14      29.65S
$$

WIZ032>034-041-042-053>061-242300-
SOUTHWEST WISCONSIN

CITY           SKY/WX    TMP DP  RH WIND       PRES   REMARKS
LA CROSSE      CLOUDY    61  50  67 NE8       29.67S
SPARTA         CLOUDY    56  50  81 NE7       29.69S
VIROQUA        CLOUDY    55  51  86 MISG      29.68R
BOSCOBEL       CLOUDY    59  50  72 N3        29.66S
PRAIRIE DU CHI CLOUDY    58  47  68 N8        29.66S
PLATTEVILLE    CLOUDY    58  54  86 N12       29.65S
$$

WIZ056-057-062-063-064-067-068-242300-
SOUTH CENTRAL WISCONSIN

CITY           SKY/WX    TMP DP  RH WIND       PRES   REMARKS
REEDSBURG      CLOUDY    55  52  90 N7        29.66S
BARABOO/DELLS  CLOUDY    55  50  81 N5        29.65S
LONE ROCK      NOT AVBL
MINERAL POINT  CLOUDY    57  54  88 N8        29.64F
MADISON        CLOUDY    55  51  86 N15       29.64S
MIDDLETON      CLOUDY    55  52  90 CALM      29.65S
WATERTOWN      CLOUDY    58  54  85 N9        29.61S
MONROE         CLOUDY    54  52  94 N12       29.62S
JANESVILLE     CLOUDY    61  54  77 N12         N/A
$$

WIZ051-052-058>065-066-070>072-242300-
SOUTHEAST WISCONSIN

CITY           SKY/WX    TMP DP  RH WIND       PRES   REMARKS
MILWAUKEE      CLOUDY    59  51  75 N21G31    29.59F
WAUKESHA       PTSUNNY   61  50  67 N14G20    29.61S
MILWAUKEE/TIMM PTSUNNY   61  48  63 NE17G26   29.61S
RACINE         PTSUNNY   56  50  80 N20G32    29.60S
KENOSHA        CLOUDY    61  52  72 N15G26    29.58S
FOND DU LAC    CLOUDY    55  49  80 N17G24    29.65R
SHEBOYGAN      CLOUDY    58  53  84 N10       29.63R
WEST BEND      CLOUDY    55  52  88 NE12      29.62S
JUNEAU         CLOUDY    57  52  84 N13G18    29.64R
$$

LSZ147-162-242300-
LAKE SUPERIOR

STATION/POSITION TIME  TEMP    WIND        PRES    WAVE
                       AIR SEA DIR/SP/G            HT/PER
                 (UTC) (F)     (DEG/KT/KT) (MB)    (FT/S)
$$

LMZ867-665-643>646-242300-
LAKE MICHIGAN

STATION/POSITION TIME  TEMP    WIND        PRES    WAVE
                       AIR SEA DIR/SP/G            HT/PER
                 (UTC) (F)     (DEG/KT/KT) (MB)    (FT/S)
$$

TC  - TEMPERATURE IN CELSIUS
VSB - VISIBILITY IN STATUTE MILES
WCI - WIND CHILL INDEX
HX  - HEAT INDEX




USA.gov is the U.S. government's official web portal to all federal, state and local government web resources and services.